STARLINK-36059

Last updated on Fri Dec 19 2025 00:02:08 GMT+0000 (Coordinated Universal Time)

1 66904U 25283AC 25352.58336806 -.01601436 00000+0 -10873-1 0 9993 2 66904 53.1550 44.3223 0000987 66.3517 111.7467 15.77429172 3360
UTC large
Height (km)
Speed (km/s)
/
Latitude / Longitude
Inclination (degrees)
Orbital Period (minutes)
Azimuth
Elevation
Range (km)
Doppler Factor

Next 0 passes for location: London (51.5072 / 0.1276)

Sorry there are no passes over London.